When you browse on this site, cookies collect data to enhance your experience and personalize the content and advertising you see.
Visit our Privacy Policy to learn more. By continuing to use the site, you agree to this use of cookies and data.
  • In Hungary
  • List of Countries
  • For 7 days
  • Water Temperature
  • Satellite Maps
  • Weather Map
  • News
  • Weather Widgets
  • user-avatar
    Login

    Hourly Weather Palafrugell

    Today, 21 January, Monday

    Time Temperature Precipitation Wind Pressure Humidity
    00:00 +2°C° 0 mm 8 mps 756 mmHg 74%
    01:00 +2°C° 0 mm 8 mps 756 mmHg 73%
    02:00 +2°C° 0 mm 8 mps 756 mmHg 71%
    03:00 +2°C° 0 mm 8 mps 756 mmHg 70%
    04:00 +2°C° 0 mm 8 mps 756 mmHg 69%
    05:00 +2°C° 0 mm 8 mps 756 mmHg 69%
    06:00 +1°C° 0 mm 8 mps 756 mmHg 70%
    07:00 +4°C° 0 mm 8 mps 756 mmHg 65%
    08:00 +5°C° 0 mm 8 mps 757 mmHg 61%
    09:00 +6°C° 0 mm 9 mps 757 mmHg 56%
    10:00 +7°C° 0 mm 9 mps 757 mmHg 50%
    11:00 +8°C° 0 mm 9 mps 757 mmHg 44%
    12:00 +11°C° 0 mm 10 mps 757 mmHg 38%
    13:00 +11°C° 0 mm 9 mps 757 mmHg 38%
    14:00 +11°C° 0 mm 9 mps 757 mmHg 38%
    15:00 +10°C° 0 mm 9 mps 757 mmHg 37%
    16:00 +8°C° 0 mm 9 mps 757 mmHg 43%
    17:00 +6°C° 0 mm 9 mps 757 mmHg 48%
    18:00 +5°C° 0 mm 9 mps 757 mmHg 53%
    19:00 +3°C° 0 mm 9 mps 757 mmHg 55%
    20:00 +2°C° 0 mm 8 mps 758 mmHg 58%
    21:00 +2°C° 0 mm 8 mps 758 mmHg 60%
    22:00 +2°C° 0 mm 8 mps 758 mmHg 60%
    23:00 +2°C° 0 mm 7 mps 758 mmHg 60%

    Tomorrow, 22 January, Tuesday

    Time Temperature Precipitation Wind Pressure Humidity
    00:00 +2°C° 0 mm 7 mps 758 mmHg 60%
    01:00 +2°C° 0 mm 6 mps 757 mmHg 58%
    02:00 +1°C° 0 mm 6 mps 757 mmHg 57%
    03:00 +1°C° 0 mm 5 mps 756 mmHg 55%
    04:00 +1°C° 0 mm 5 mps 756 mmHg 54%
    05:00 +1°C° 0 mm 4 mps 756 mmHg 52%
    06:00 0°C° 0 mm 4 mps 756 mmHg 51%
    07:00 +3°C° 0 mm 4 mps 756 mmHg 48%
    08:00 +4°C° 0 mm 3 mps 756 mmHg 44%
    09:00 +5°C° 0 mm 3 mps 755 mmHg 41%
    10:00 +7°C° 0 mm 2 mps 755 mmHg 40%
    11:00 +9°C° 0 mm 2 mps 754 mmHg 40%
    12:00 +11°C° 0 mm 1 mps 753 mmHg 40%
    13:00 +10°C° 0 mm 2 mps 753 mmHg 42%
    14:00 +10°C° 0 mm 3 mps 752 mmHg 44%
    15:00 +9°C° 0 mm 5 mps 751 mmHg 46%
    16:00 +8°C° 0 mm 4 mps 751 mmHg 45%
    17:00 +8°C° 0 mm 3 mps 750 mmHg 45%
    18:00 +7°C° 0 mm 3 mps 750 mmHg 44%
    19:00 +7°C° 0 mm 3 mps 750 mmHg 45%
    20:00 +7°C° 0 mm 3 mps 750 mmHg 47%
    21:00 +5°C° 0 mm 3 mps 749 mmHg 48%
    22:00 +5°C° 0 mm 3 mps 749 mmHg 48%
    23:00 +5°C° 0 mm 4 mps 749 mmHg 48%

    Day after tomorrow, 23 January, Wednesday

    Time Temperature Precipitation Wind Pressure Humidity
    00:00 +4°C° 0 mm 4 mps 748 mmHg 48%
    01:00 +5°C° 0 mm 4 mps 748 mmHg 47%
    02:00 +5°C° 0 mm 3 mps 748 mmHg 47%
    03:00 +5°C° 0 mm 3 mps 747 mmHg 46%
    04:00 +5°C° 0 mm 2 mps 747 mmHg 49%
    05:00 +5°C° 0 mm 1 mps 746 mmHg 52%
    06:00 +5°C° 0 mm 1 mps 745 mmHg 56%
    07:00 +6°C° 0.1 mm 1 mps 745 mmHg 57%
    08:00 +6°C° 0.1 mm 1 mps 744 mmHg 58%
    09:00 +7°C° 0.1 mm 1 mps 744 mmHg 59%
    10:00 +7°C° 0.3 mm 3 mps 743 mmHg 58%
    11:00 +7°C° 0.3 mm 5 mps 743 mmHg 56%
    12:00 +8°C° 0.3 mm 7 mps 742 mmHg 55%
    13:00 +7°C° 0 mm 10 mps 742 mmHg 49%
    14:00 +7°C° 0 mm 12 mps 742 mmHg 44%
    15:00 +6°C° 0 mm 15 mps 742 mmHg 39%
    16:00 +4°C° 0 mm 15 mps 743 mmHg 41%
    17:00 +2°C° 0 mm 15 mps 743 mmHg 42%
    18:00 0°C° 0 mm 15 mps 744 mmHg 44%
    19:00 0°C° 0 mm 14 mps 745 mmHg 46%
    20:00 0°C° 0 mm 14 mps 745 mmHg 47%
    21:00 0°C° 0 mm 13 mps 745 mmHg 49%
    22:00 0°C° 0 mm 14 mps 746 mmHg 50%
    23:00 -1°C° 0 mm 15 mps 746 mmHg 51%

    24 January, Thursday

    Time Temperature Precipitation Wind Pressure Humidity
    00:00 -1°C° 0 mm 15 mps 746 mmHg 52%
    01:00 -1°C° 0 mm 15 mps 746 mmHg 50%
    02:00 -2°C° 0 mm 16 mps 747 mmHg 48%
    03:00 -2°C° 0 mm 16 mps 747 mmHg 46%
    04:00 -2°C° 0 mm 16 mps 747 mmHg 47%
    05:00 -2°C° 0 mm 16 mps 748 mmHg 48%
    06:00 -2°C° 0 mm 16 mps 748 mmHg 49%
    07:00 0°C° 0 mm 16 mps 749 mmHg 45%
    08:00 +1°C° 0 mm 17 mps 749 mmHg 41%
    09:00 +2°C° 0 mm 17 mps 750 mmHg 36%
    10:00 +3°C° 0 mm 17 mps 750 mmHg 32%
    11:00 +6°C° 0 mm 17 mps 751 mmHg 29%
    12:00 +7°C° 0 mm 17 mps 751 mmHg 25%
    13:00 +7°C° 0 mm 16 mps 752 mmHg 25%
    14:00 +9°C° 0 mm 15 mps 752 mmHg 24%
    15:00 +9°C° 0 mm 14 mps 752 mmHg 24%
    16:00 +7°C° 0 mm 13 mps 753 mmHg 28%
    17:00 +4°C° 0 mm 12 mps 753 mmHg 32%
    18:00 +3°C° 0 mm 11 mps 754 mmHg 36%
    19:00 +2°C° 0 mm 11 mps 754 mmHg 37%
    20:00 +2°C° 0 mm 12 mps 755 mmHg 37%
    21:00 0°C° 0 mm 12 mps 755 mmHg 38%
    22:00 0°C° 0 mm 12 mps 755 mmHg 38%
    23:00 -1°C° 0 mm 11 mps 756 mmHg 38%

    25 January, Friday

    Time Temperature Precipitation Wind Pressure Humidity
    00:00 -1°C° 0 mm 11 mps 756 mmHg 38%
    01:00 0°C° 0 mm 10 mps 756 mmHg 38%
    02:00 0°C° 0 mm 10 mps 755 mmHg 38%
    03:00 0°C° 0 mm 9 mps 755 mmHg 38%
    04:00 0°C° 0 mm 9 mps 756 mmHg 39%
    05:00 0°C° 0 mm 9 mps 756 mmHg 40%
    06:00 +1°C° 0 mm 8 mps 756 mmHg 41%
    07:00 +2°C° 0 mm 8 mps 756 mmHg 42%
    08:00 +5°C° 0 mm 7 mps 756 mmHg 42%
    09:00 +6°C° 0 mm 7 mps 757 mmHg 43%
    10:00 +9°C° 0 mm 6 mps 757 mmHg 40%
    11:00 +13°C° 0 mm 6 mps 757 mmHg 38%
    12:00 +15°C° 0 mm 5 mps 757 mmHg 35%
    13:00 +15°C° 0 mm 4 mps 757 mmHg 37%
    14:00 +15°C° 0 mm 4 mps 756 mmHg 38%
    15:00 +15°C° 0 mm 4 mps 756 mmHg 40%
    16:00 +13°C° 0 mm 4 mps 756 mmHg 49%
    17:00 +10°C° 0 mm 4 mps 756 mmHg 58%
    18:00 +7°C° 0 mm 4 mps 757 mmHg 67%
    19:00 +7°C° 0 mm 4 mps 757 mmHg 68%
    20:00 +7°C° 0 mm 5 mps 757 mmHg 68%
    21:00 +6°C° 0 mm 5 mps 758 mmHg 69%
    22:00 +6°C° 0 mm 5 mps 758 mmHg 70%
    23:00 +6°C° 0 mm 5 mps 758 mmHg 71%

    26 January, Saturday

    Time Temperature Precipitation Wind Pressure Humidity
    00:00 +6°C° 0 mm 5 mps 758 mmHg 72%
    01:00 +6°C° 0 mm 5 mps 758 mmHg 73%
    02:00 +6°C° 0 mm 5 mps 757 mmHg 73%
    03:00 +5°C° 0 mm 5 mps 757 mmHg 74%
    04:00 +5°C° 0 mm 5 mps 757 mmHg 74%
    05:00 +5°C° 0 mm 5 mps 757 mmHg 74%
    06:00 +5°C° 0 mm 4 mps 757 mmHg 75%
    07:00 +6°C° 0 mm 4 mps 757 mmHg 70%
    08:00 +7°C° 0 mm 4 mps 757 mmHg 65%
    09:00 +8°C° 0 mm 4 mps 758 mmHg 61%
    10:00 +11°C° 0 mm 3 mps 757 mmHg 57%
    11:00 +12°C° 0 mm 3 mps 757 mmHg 53%
    12:00 +15°C° 0 mm 2 mps 757 mmHg 49%
    13:00 +15°C° 0 mm 2 mps 756 mmHg 52%
    14:00 +14°C° 0 mm 2 mps 756 mmHg 54%
    15:00 +14°C° 0 mm 2 mps 755 mmHg 56%
    16:00 +13°C° 0 mm 2 mps 755 mmHg 61%
    17:00 +12°C° 0 mm 1 mps 755 mmHg 66%
    18:00 +11°C° 0 mm 1 mps 755 mmHg 71%
    19:00 +11°C° 0 mm 1 mps 755 mmHg 72%
    20:00 +11°C° 0 mm 1 mps 755 mmHg 74%
    21:00 +11°C° 0 mm 1 mps 755 mmHg 75%
    22:00 +10°C° 0 mm 1 mps 754 mmHg 78%
    23:00 +10°C° 0 mm 1 mps 754 mmHg 80%
    Show more